Preview of NWS' New Version of Forecast
This preview is not operational and should not be used for support decisions.

Regional Weather Roundup (RWR)

Issued by National Weather Service (NWS)

                            
000
ASUS45 KBOU 190010
RWRCO 

WEATHER ROUNDUP FOR COLORADO
NATIONAL WEATHER SERVICE DENVER/BOULDER CO
600 PM MDT TUE JUN 18 2019

NOTE: "FAIR" INDICATES FEW OR NO CLOUDS BELOW 12000 FEET WITH NO
SIGNIFICANT WEATHER AND/OR OBSTRUCTIONS TO VISIBILITY.

COZ001>005-013-030-031-190100-
...NORTHWEST COLORADO...
  
CITY           SKY/WX    TMP DP  RH WIND       PRES   REMARKS
CRAIG          HVY RAIN  52  46  80 NW12G30   30.17R                  
HAYDEN         CLOUDY    57  46  66 SE8       30.14R                  
MEEKER         FAIR      55  46  71 W7        30.14S                  
RANGELY        CLOUDY    72  44  36 S10       30.03R                  
RABBIT EARS PA NOT AVBL                                               
STEAMBOAT SPGS PTSUNNY   53  45  72 SE6       30.16R                  
WALDEN         CLOUDY    46  43  87 N13       30.22F                  
$$

COZ006>008-011-190100-
...WEST CENTRAL VALLEYS...
  
CITY           SKY/WX    TMP DP  RH WIND       PRES   REMARKS
GRAND JUNCTION PTSUNNY   73  46  38 W6        30.05R                  
MONTROSE       PTSUNNY   61  48  62 SE20G28   30.13F                  
EAGLE          PTSUNNY   64  45  49 SW10      30.16F                  
RIFLE          CLOUDY    63  51  65 NW10G22   30.13R                  
DELTA          FAIR      73  48  40 SE15G21   30.09S                  
NUCLA          FAIR      64  48  55 E12       30.13F                  
$$

COZ017>023-064>068-190100-
...SOUTHWEST COLORADO...
  
CITY           SKY/WX    TMP DP  RH WIND       PRES   REMARKS
DURANGO        FAIR      66  38  35 N10       30.16R                  
CORTEZ         PTSUNNY   70  41  34 E8        30.11S                  
PAGOSA SPRINGS FAIR      62  38  41 NW8       30.21F                  
TELLURIDE      FAIR      50  43  76 CALM      30.34F                  
WOLF CREEK PAS PTSUNNY   39  30  70 W9G16     30.48F                  
$$

COZ009-010-012-014-032>034-037-058>063-190100-
...CENTRAL COLORADO...
  
CITY           SKY/WX    TMP DP  RH WIND       PRES   REMARKS
ASPEN          PTSUNNY   58  41  53 CALM      30.21F                  
BUENA VISTA    FAIR      60  35  39 W23G29    30.17S                  
COPPER MTN     CLOUDY    41  37  87 W15G21    30.41S                  
BERTHOUD PASS  CLOUDY    34  27  75 NW18G31   30.38S WCI  23          
COTTONWOOD PAS FAIR      54  34  47 W17G28    30.28F                  
GUNNISON       LGT RAIN  52  43  71 SW7       30.26S                  
GRANBY         MOCLDY    51  46  82 S7        30.22F                  
KREMMLING      NOT AVBL                                               
LEADVILLE      CLOUDY    48  36  63 NW10      30.30S                  
MONARCH PASS   HVY SNOW  34  32  93 MISG      30.52S VSB<1/4          
SALIDA         CLOUDY    54  46  74 SW21G35   30.27R                  
SUNLIGHT       CLOUDY    41  37  87 W3        30.41S                  
WILKERSON PASS PTSUNNY   48  37  66 NW6G21    30.37S                  
$$

COZ069>075-190100-
...SAN LUIS VALLEY/SANGRE DE CRISTO MOUNTAINS...
  
CITY           SKY/WX    TMP DP  RH WIND       PRES   REMARKS
ALAMOSA        PTSUNNY   61  38  42 NW21G33   30.19R                  
DEL NORTE      FAIR      58  38  47 W13G23    30.21F                  
LA VETA PASS   NOT AVBL                                               
SAGUACHE       FAIR      59  46  63 NW21G26   30.23F                  
$$

COZ035-036-038>040-190100-
...NORTHERN COLORADO FRONT RANGE...
  
CITY           SKY/WX    TMP DP  RH WIND       PRES   REMARKS
DENVER INTL AP PTSUNNY   56  53  90 E12       30.04S                  
AURORA         PTSUNNY   58  50  74 NE17G23   30.05R                  
FRONT RANGE AP TSTM      54  50  87 E8        30.07R                  
ERIE MUNI ARPT FAIR      61  52  72 NE9       30.09R                  
BOULDER MUN AP CLOUDY    61  50  67 N6        30.04R                  
CENTENNIAL     PTSUNNY   60  52  74 N17G26    30.06R                  
BROOMFIELD     NOT AVBL                                               
FORT COLLINS     N/A     58  54  86 N12       30.05R                  
LONGMONT       CLOUDY    62  53  73 CALM      30.06R                  
$$

COZ041-046-047-076>085-087-088-190100-
...PIKES PEAK/PALMER DIVIDE AND SOUTHERN FOOTHILLS...
  
CITY           SKY/WX    TMP DP  RH WIND       PRES   REMARKS
COLO. SPRINGS  LGT RAIN  56  48  74 E18       30.06F                  
A. F. ACADEMY  LGT RAIN  55  52  89 E7        30.07F                  
SCHRIEVER AFB  NOT AVBL                                               
CHEYENNE MTN   NOT AVBL                                               
ELLICOTT         N/A    N/A N/A N/A NW14      30.11R                  
FALCON         CLOUDY    55  52  89 SW9       30.15R                  
FORT CARSON    TSTM      57  54  90 SE6       30.06R FOG              
LIMON          PTSUNNY   62  56  80 S7        30.03R                  
MONUMENT HILL  LGT RAIN  55  48  76 CALM      30.12R                  
CANON CITY     FAIR      63  54  72 E3        30.05R                  
WALSENBURG     NOT AVBL                                               
TRINIDAD       FAIR      68  41  37 N7        30.01F                  
$$

COZ042>045-048>051-090-091-190100-
...NORTHEAST COLORADO...
  
CITY           SKY/WX    TMP DP  RH WIND       PRES   REMARKS
GREELEY ARPT   PTSUNNY   58  54  86 NE8       30.02F                  
AKRON          CLOUDY    63  57  81 N3        30.01R                  
BURLINGTON     FAIR      65  60  84 NE8       29.96F                  
WRAY           FAIR      70  55  60 NE5       29.96R                  
YUMA           FAIR      64  43  45 CALM      29.98R                  
STERLING       FAIR      64  59  82 W8        29.99R                  
HOLYOKE        FAIR      68  57  68 E6        29.97S                  
FORT MORGAN    RAIN      54  51  90 N9        30.02F                  
$$

COZ086-089-092>099-190100-
...SOUTHEAST COLORADO...
  
CITY           SKY/WX    TMP DP  RH WIND       PRES   REMARKS
PUEBLO         PTSUNNY   63  56  78 E6        30.00R                  
LA JUNTA       LGT RAIN  65  59  81 W10       30.00R                  
LAMAR          FAIR      75  56  51 NE6       29.91S                  
SPRINGFIELD      N/A     69  60  73 E10       29.92F                  
$$